Flag for U.S.A. Weather past 2 weeks in Coeur d'Alene, Idaho, U.S.A.

Now
77 °F

Sunny.


Feels Like: 78 °F
Forecast: 59 / 99 °F
Wind: 5 mph from Northeast

Location: Coeur d'Alene Weather Reporting System

Current Time: Aug 2, 2015 at 9:54:15 AM

Latest Report: Aug 2, 2015 at 9:35 AM


Visibility: 10 mi

Pressure: 29.94 "Hg (27.77 "Hg at 655m altitude)

Humidity: 30%

Dew point: 43 °F

Location of Coeur d'AleneLocation

Historic Weather in Coeur d'Alene — Graph

°F

Coeur d'Alene temperature yesterday

Maximum temperature yesterday: 97 °F (at 1:55 PM)
Minimum temperature yesterday: 54 °F (at 4:15 AM)
Average temperature yesterday: 76 °F

Past Weeks' High & Low Weather Summary

 TemperatureHumidityPressure
High99 °F (Jul 31, 2:15 PM)88% (Jul 25, 8:35 PM)30.23 "Hg (Jul 25, 8:35 PM)
Low48 °F (Jul 27, 5:35 AM)10% (Jul 18, 10:15 AM)29.72 "Hg (Jul 22, 12:15 AM)
Average71 °F39%29.98 "Hg
* Reported Jul 18 8:15 AM — Aug 2 8:35 AM, Coeur d'Alene, Weather by CustomWeather, © 2015

Note: Actual official high and low records may vary slightly from our data, if they occured in-between our weather recording intervals... More about our weather records

Advertising

Coeur d'Alene weather history for previous 24 hours

 ConditionsComfort  
Time TempWeatherWind HumidityBarometerVisibility
8:35 AM
Sun, Aug 2
70 °FSunny.6 mph20%29.95 "Hg10 mi
8:15 AM68 °FSunny.7 mph40%29.95 "Hg10 mi
7:55 AM66 °FSunny.8 mph43%29.95 "Hg10 mi
7:35 AM66 °FSunny.7 mph37%29.94 "Hg10 mi
7:15 AM64 °FSunny.7 mph40%29.94 "Hg10 mi
6:55 AM63 °FSunny.No wind49%29.94 "Hg10 mi
6:35 AM61 °FSunny.5 mph55%29.93 "Hg10 mi
6:15 AM55 °FClear.6 mph55%29.93 "Hg10 mi
5:55 AM55 °FClear.3 mph51%29.93 "Hg10 mi
5:35 AM54 °FClear.6 mph54%29.92 "Hg10 mi
5:15 AM54 °FClear.5 mph51%29.92 "Hg10 mi
4:55 AM55 °FClear.7 mph55%29.92 "Hg10 mi
4:35 AM54 °FClear.10 mph51%29.92 "Hg10 mi
4:15 AM55 °FClear.5 mph51%29.92 "Hg10 mi
3:55 AM54 °FClear.8 mph54%29.92 "Hg10 mi
3:35 AM54 °FClear.7 mph51%29.91 "Hg10 mi
3:15 AM55 °FClear.5 mph59%29.91 "Hg10 mi
2:55 AM55 °FClear.5 mph51%29.91 "Hg10 mi
2:35 AM55 °FClear.5 mph51%29.91 "Hg10 mi
2:15 AM57 °FClear.No wind48%29.90 "Hg10 mi
1:55 AM55 °FClear.6 mph51%29.90 "Hg10 mi
1:35 AM64 °FClear.No wind40%29.89 "Hg10 mi
1:15 AM64 °FClear.No wind40%29.90 "Hg10 mi
12:55 AM64 °FClear.No wind46%29.89 "Hg10 mi
12:35 AM63 °FClear.5 mph49%29.89 "Hg10 mi
12:15 AM64 °FClear.No wind43%29.90 "Hg10 mi
11:55 PM
Sat, Aug 1
66 °FClear.3 mph40%29.89 "Hg10 mi
11:35 PM70 °FClear.6 mph38%29.89 "Hg10 mi
11:15 PM64 °FClear.5 mph49%29.89 "Hg10 mi
10:55 PM64 °FClear.No wind46%29.89 "Hg10 mi
10:35 PM70 °FClear.5 mph38%29.89 "Hg10 mi
10:15 PM72 °FClear.7 mph36%29.89 "Hg10 mi
9:55 PM70 °FClear.8 mph35%29.88 "Hg10 mi
9:35 PM73 °FClear.6 mph31%29.88 "Hg10 mi
9:15 PM75 °FSunny.6 mph22%29.87 "Hg10 mi
8:55 PM73 °FSunny.No wind20%29.87 "Hg10 mi
8:15 PM77 °FSunny.7 mph24%29.85 "Hg10 mi
7:55 PM81 °FSunny.3 mph11%29.85 "Hg8 mi
7:35 PM84 °FSunny.3 mph16%29.85 "Hg10 mi
7:15 PM88 °FSunny.5 mph12%29.85 "Hg10 mi
6:55 PM91 °FSunny.6 mph10%29.85 "Hg10 mi
6:35 PM93 °FSunny.9 mph11%29.85 "Hg10 mi
5:55 PM95 °FSunny.8 mph10%29.85 "Hg10 mi
5:35 PM95 °FSunny.8 mph10%29.86 "Hg10 mi
5:15 PM97 °FSunny.12 mph10%29.86 "Hg10 mi
4:55 PM97 °FSunny.10 mph10%29.87 "Hg10 mi
4:15 PM97 °FSunny.13 mph11%29.88 "Hg10 mi
3:55 PM97 °FSunny.9 mph11%29.89 "Hg10 mi
3:15 PM97 °FSunny.10 mph11%29.90 "Hg10 mi
2:35 PM97 °FSunny.9 mph11%29.91 "Hg10 mi
2:15 PM97 °FSunny.13 mph12%29.91 "Hg10 mi
1:55 PM97 °FSunny.13 mph13%29.92 "Hg10 mi
1:35 PM95 °FSunny.13 mph14%29.92 "Hg6 mi
1:15 PM93 °FSunny.3 mph15%29.93 "Hg7 mi
12:55 PM93 °FSunny.6 mph15%29.94 "Hg9 mi
12:35 PM91 °FSunny.No wind16%29.94 "Hg8 mi
12:15 PM90 °FSunny.6 mph17%29.95 "Hg5 mi
11:55 AM90 °FSunny.6 mph17%29.96 "Hg9 mi
11:35 AM88 °FSunny.5 mph17%29.96 "Hg10 mi
11:15 AM88 °FSunny.7 mph18%29.97 "Hg10 mi
10:55 AM88 °FSunny.5 mph21%29.98 "Hg10 mi
10:15 AM84 °FSunny.7 mph23%29.98 "Hg10 mi
9:55 AM82 °FSunny.8 mph25%29.98 "Hg10 mi
9:35 AM81 °FSunny.9 mph26%29.98 "Hg10 mi
9:15 AM79 °FSunny.7 mph28%29.98 "Hg10 mi
Weather by CustomWeather, © 2015

See weather overviewHow to use our weather pages